Meteo pe oră la Dachowa

Astăzi, 11 Aprilie, Duminică

Timp Temperatura Precipitaţii Vânt Presiune Umiditate
00:00 +6°C° 0 mm 2 m/s 755 mmHg 95%
01:00 +5°C° 0 mm 3 m/s 755 mmHg 95%
02:00 +5°C° 0 mm 3 m/s 754 mmHg 95%
03:00 +5°C° 0 mm 3 m/s 754 mmHg 94%
04:00 +5°C° 0 mm 4 m/s 754 mmHg 94%
05:00 +6°C° 0 mm 4 m/s 753 mmHg 90%
06:00 +6°C° 0 mm 4 m/s 753 mmHg 86%
07:00 +7°C° 0 mm 5 m/s 753 mmHg 83%
08:00 +9°C° 0 mm 5 m/s 753 mmHg 75%
09:00 +11°C° 0 mm 6 m/s 753 mmHg 68%
10:00 +14°C° 0 mm 6 m/s 752 mmHg 60%
11:00 +15°C° 0 mm 7 m/s 752 mmHg 57%
12:00 +16°C° 0 mm 7 m/s 752 mmHg 55%
13:00 +16°C° 0 mm 8 m/s 752 mmHg 52%
14:00 +16°C° 0 mm 7 m/s 751 mmHg 56%
15:00 +15°C° 0 mm 6 m/s 751 mmHg 60%
16:00 +14°C° 0 mm 5 m/s 751 mmHg 64%
17:00 +13°C° 0 mm 5 m/s 751 mmHg 68%
18:00 +12°C° 0 mm 4 m/s 751 mmHg 73%
19:00 +11°C° 0 mm 3 m/s 751 mmHg 78%
20:00 +10°C° 0 mm 4 m/s 751 mmHg 78%
21:00 +10°C° 0 mm 4 m/s 752 mmHg 77%
22:00 +9°C° 0 mm 5 m/s 752 mmHg 77%
23:00 +8°C° 0 mm 4 m/s 752 mmHg 78%

Mâine, 12 Aprilie, Luni

Timp Temperatura Precipitaţii Vânt Presiune Umiditate
00:00 +8°C° 0 mm 4 m/s 752 mmHg 80%
01:00 +7°C° 0 mm 4 m/s 752 mmHg 82%
02:00 +8°C° 0 mm 3 m/s 753 mmHg 85%
03:00 +7°C° 0 mm 3 m/s 753 mmHg 87%
04:00 +7°C° 0 mm 3 m/s 753 mmHg 90%
05:00 +6°C° 0 mm 4 m/s 754 mmHg 89%
06:00 +6°C° 0 mm 5 m/s 754 mmHg 88%
07:00 +6°C° 0 mm 5 m/s 755 mmHg 87%
08:00 +6°C° 0.2 mm 5 m/s 755 mmHg 86%
09:00 +5°C° 0.2 mm 5 m/s 756 mmHg 85%
10:00 +5°C° 0.2 mm 5 m/s 756 mmHg 83%
11:00 +3°C° 0.7 mm 5 m/s 757 mmHg 85%
12:00 +3°C° 0.7 mm 5 m/s 757 mmHg 87%
13:00 +2°C° 0.7 mm 5 m/s 758 mmHg 88%
14:00 +2°C° 0.8 mm 5 m/s 758 mmHg 87%
15:00 +2°C° 0.8 mm 5 m/s 758 mmHg 86%
16:00 +3°C° 0.8 mm 4 m/s 759 mmHg 85%
17:00 +3°C° 0.1 mm 4 m/s 759 mmHg 86%
18:00 +3°C° 0.1 mm 3 m/s 760 mmHg 86%
19:00 +3°C° 0.1 mm 3 m/s 760 mmHg 86%
20:00 +4°C° 0.1 mm 2 m/s 760 mmHg 85%
21:00 +4°C° 0.1 mm 2 m/s 760 mmHg 84%
22:00 +4°C° 0.1 mm 2 m/s 761 mmHg 83%
23:00 +3°C° 0 mm 2 m/s 761 mmHg 83%

Poimâine, 13 Aprilie, Marţi

Timp Temperatura Precipitaţii Vânt Presiune Umiditate
00:00 +3°C° 0 mm 2 m/s 761 mmHg 82%
01:00 +3°C° 0 mm 2 m/s 761 mmHg 82%
02:00 +3°C° 0 mm 2 m/s 761 mmHg 81%
03:00 +3°C° 0 mm 2 m/s 762 mmHg 80%
04:00 +3°C° 0 mm 2 m/s 762 mmHg 79%
05:00 +3°C° 0 mm 2 m/s 762 mmHg 77%
06:00 +4°C° 0 mm 2 m/s 762 mmHg 75%
07:00 +4°C° 0 mm 2 m/s 762 mmHg 74%
08:00 +5°C° 0 mm 2 m/s 762 mmHg 67%
09:00 +5°C° 0 mm 3 m/s 763 mmHg 60%
10:00 +7°C° 0 mm 3 m/s 763 mmHg 53%
11:00 +7°C° 0 mm 4 m/s 762 mmHg 48%
12:00 +7°C° 0 mm 4 m/s 762 mmHg 42%
13:00 +8°C° 0 mm 4 m/s 762 mmHg 37%
14:00 +8°C° 0 mm 4 m/s 762 mmHg 38%
15:00 +8°C° 0 mm 4 m/s 762 mmHg 39%
16:00 +9°C° 0 mm 3 m/s 761 mmHg 40%
17:00 +8°C° 0 mm 3 m/s 761 mmHg 44%
18:00 +7°C° 0 mm 3 m/s 761 mmHg 49%
19:00 +5°C° 0 mm 3 m/s 762 mmHg 53%
20:00 +5°C° 0 mm 3 m/s 762 mmHg 57%
21:00 +4°C° 0 mm 3 m/s 762 mmHg 62%
22:00 +4°C° 0 mm 3 m/s 762 mmHg 66%
23:00 +3°C° 0 mm 3 m/s 762 mmHg 66%

14 Aprilie, Miercuri

Timp Temperatura Precipitaţii Vânt Presiune Umiditate
00:00 +3°C° 0 mm 3 m/s 762 mmHg 67%
01:00 +3°C° 0 mm 3 m/s 762 mmHg 67%
02:00 +2°C° 0 mm 3 m/s 761 mmHg 69%
03:00 +2°C° 0 mm 3 m/s 761 mmHg 71%
04:00 +1°C° 0 mm 3 m/s 761 mmHg 72%
05:00 +2°C° 0 mm 3 m/s 761 mmHg 72%
06:00 +1°C° 0 mm 4 m/s 761 mmHg 72%
07:00 +1°C° 0 mm 4 m/s 762 mmHg 72%
08:00 +3°C° 0 mm 4 m/s 761 mmHg 68%
09:00 +3°C° 0 mm 5 m/s 761 mmHg 64%
10:00 +6°C° 0 mm 5 m/s 761 mmHg 59%
11:00 +6°C° 0 mm 5 m/s 761 mmHg 55%
12:00 +7°C° 0 mm 5 m/s 761 mmHg 51%
13:00 +8°C° 0 mm 5 m/s 760 mmHg 47%
14:00 +8°C° 0 mm 5 m/s 760 mmHg 48%
15:00 +8°C° 0 mm 5 m/s 760 mmHg 49%
16:00 +8°C° 0 mm 5 m/s 759 mmHg 50%
17:00 +7°C° 0 mm 5 m/s 760 mmHg 53%
18:00 +6°C° 0 mm 4 m/s 760 mmHg 57%
19:00 +5°C° 0 mm 4 m/s 760 mmHg 60%
20:00 +4°C° 0 mm 4 m/s 760 mmHg 60%
21:00 +4°C° 0 mm 4 m/s 760 mmHg 60%
22:00 +2°C° 0 mm 5 m/s 761 mmHg 61%
23:00 +2°C° 0 mm 5 m/s 760 mmHg 63%

15 Aprilie, Joi

Timp Temperatura Precipitaţii Vânt Presiune Umiditate
00:00 +1°C° 0 mm 5 m/s 760 mmHg 66%
01:00 +1°C° 0 mm 5 m/s 760 mmHg 68%
02:00 +1°C° 0 mm 5 m/s 760 mmHg 68%
03:00 0°C° 0 mm 5 m/s 760 mmHg 68%
04:00 0°C° 0 mm 5 m/s 760 mmHg 68%
05:00 0°C° 0 mm 5 m/s 760 mmHg 69%
06:00 +1°C° 0 mm 5 m/s 760 mmHg 70%
07:00 +1°C° 0 mm 6 m/s 760 mmHg 72%
08:00 +1°C° 0.2 mm 6 m/s 760 mmHg 75%
09:00 +2°C° 0.2 mm 7 m/s 760 mmHg 79%
10:00 +2°C° 0.2 mm 7 m/s 760 mmHg 83%
11:00 +3°C° 0.2 mm 7 m/s 760 mmHg 80%
12:00 +3°C° 0.2 mm 7 m/s 760 mmHg 77%
13:00 +4°C° 0.2 mm 7 m/s 760 mmHg 75%
14:00 +4°C° 0.1 mm 6 m/s 760 mmHg 74%
15:00 +4°C° 0.1 mm 6 m/s 760 mmHg 74%
16:00 +5°C° 0.1 mm 5 m/s 760 mmHg 73%
17:00 +5°C° 0 mm 5 m/s 760 mmHg 74%
18:00 +5°C° 0 mm 5 m/s 760 mmHg 74%
19:00 +5°C° 0 mm 5 m/s 761 mmHg 75%
20:00 +3°C° 0 mm 5 m/s 761 mmHg 77%
21:00 +3°C° 0 mm 5 m/s 761 mmHg 80%
22:00 +2°C° 0 mm 5 m/s 761 mmHg 83%
23:00 +3°C° 0 mm 4 m/s 761 mmHg 80%

16 Aprilie, Vineri

Timp Temperatura Precipitaţii Vânt Presiune Umiditate
00:00 +3°C° 0 mm 4 m/s 761 mmHg 78%
01:00 +3°C° 0 mm 4 m/s 761 mmHg 75%
02:00 +1°C° 0 mm 4 m/s 761 mmHg 78%
03:00 +1°C° 0 mm 4 m/s 761 mmHg 80%
04:00 +1°C° 0 mm 4 m/s 761 mmHg 82%
05:00 +1°C° 0 mm 4 m/s 761 mmHg 81%
06:00 +1°C° 0 mm 4 m/s 761 mmHg 80%
07:00 +3°C° 0 mm 4 m/s 762 mmHg 79%
08:00 +4°C° 0 mm 4 m/s 762 mmHg 75%
09:00 +5°C° 0 mm 5 m/s 762 mmHg 72%
10:00 +6°C° 0 mm 5 m/s 762 mmHg 69%
11:00 +6°C° 0 mm 5 m/s 762 mmHg 71%
12:00 +5°C° 0 mm 5 m/s 762 mmHg 74%
13:00 +5°C° 0 mm 4 m/s 762 mmHg 77%
14:00 +5°C° 0 mm 4 m/s 762 mmHg 82%
15:00 +4°C° 0 mm 4 m/s 762 mmHg 87%
16:00 +3°C° 0 mm 3 m/s 763 mmHg 91%
17:00 +3°C° 0 mm 3 m/s 763 mmHg 93%
18:00 +3°C° 0 mm 3 m/s 763 mmHg 95%
19:00 +2°C° 0 mm 3 m/s 763 mmHg 96%
20:00 +2°C° 0 mm 3 m/s 763 mmHg 96%
21:00 +3°C° 0 mm 2 m/s 764 mmHg 97%
22:00 +3°C° 0 mm 2 m/s 764 mmHg 97%
23:00 +4°C° 0 mm 2 m/s 764 mmHg 97%
Arată mai mult

Formular de consimțământ

Meteoprog și furnizorii noștri de servicii pot stoca și accesa date personale, precum cookies, identificatori de dispozitiv sau alte tehnologii similare pe dispozitivul dumneavoastră și procesa astfel de date pentru a personaliza conținutul și reclamele, dar și pentru a oferi caracteristici de social media și pentru a analiza traficul.

  • Stocarea și/sau accesarea informațiilor pe dispozitivul dumneavoastră

    Cookies, identificatori de dispozitiv sau alte informații pot fi stocate sau accesate pe dispozitiv în scopurile indicate mai sus.

  • Reclame și conținut personalizat, evaluarea reclamelor și a conținutului, informații despre audiențe și dezvoltarea produselor

    Reclamele și conținutul pot fi personalizate pe baza unui profil. Pot fi adăugate date suplimentare pentru a personaliza mai bine reclamele și conținutul. Performanța reclamelor și conținutului poate fi măsurată. Pot fi obținute informații despre utilizatorii care au văzut reclamele și conținutul. Aceste date pot fi utilizate pentru a dezvolta sau îmbunătăți experiența utilizatorilor, sistemele și software-ul.

Dând clic pe ‘Sunt de acord’, permiteți utilizarea cookie-urilor menționate, a identificatorilor de dispozitiv, balizelor web sau altor tehnologii similare. Setările pot fi modificate din browser-ul dispozitivului dumneavoastră.

În anumite scopuri, interesele legitime pot prima asupra consimțământului. Puteți citi mai multe informații în acest sens în Politica privind Confidențialitatea Datelor și Cookie.